Weather History for Metropolis, IL

Change the Weather History Date:

Friday, February 22, 2013

  Actual Average (KPAH) Record (KPAH)
Temperature  
Mean Temperature 38 °F 41 °F  
Max Temperature 44 °F 51 °F 72 °F (1992)
Min Temperature 32 °F 31 °F -3 °F (1963)
Degree Days  
Heating Degree Days 26 24  
Month to date heating degree days 587  
Since 1 July heating degree days 3160  
Cooling Degree Days 0 0  
Month to date cooling degree days 0  
Year to date cooling degree days 0  
Moisture  
Dew Point 35 °F    
Average Humidity 86    
Maximum Humidity 100    
Minimum Humidity 70    
Precipitation  
Precipitation 0.20 in 0.14 in 1.45 in (2003)
Month to date precipitation 3.08  
Year to date precipitation 6.76  
Snow  
Snow 0.00 in 0.10 in T in (2003)
Month to date snowfall 2.7  
Since 1 July snowfall 8.0  
Snow Depth -    
Sea Level Pressure  
Sea Level Pressure 29.97 in    
Wind  
Wind Speed 7 mph (WSW)    
Max Wind Speed 15 mph    
Max Gust Speed 21 mph    
Visibility 9 miles    
Events      
T = Trace of Precipitation, MM = Missing Value Source: NWS Daily Summary

Daily Weather History Graph

Daily Weather History Graph

Search for Another Location

Airport:

Trip Planner

Search our weather history database for the weather conditions in past years. The results will help you decide how hot, cold, wet, or windy it might be!

Date:

Astronomy

Feb. 22, 2013 Rise Set
Actual Time 6:34 AM CST 5:42 PM CST
Civil Twilight 6:08 AM CST 6:08 PM CST
Nautical Twilight 5:38 AM CST 6:39 PM CST
Astronomical Twilight 5:08 AM CST 7:09 PM CST
Moon 2:56 PM CST (2/22) 4:17 AM CST (2/22)
Length of Visible Light 12h 00m
Length of Day
11h 07m
Waxing Gibbous, 90% of the Moon is Illuminated
Feb 22
Waxing Gibbous
Feb 25
Full
Mar 4
Last Quarter
Mar 11
New
Mar 19
First Quarter

Hourly Weather History & Observations

Time (CST) Temp. Windchill Dew Point Humidity Pressure Visibility Wind Dir Wind Speed Gust Speed Precip Events Conditions
12:15 AM 36.1 °F - 36.1 °F 100% 29.82 in 4.0 mi Calm Calm - N/A   Overcast
12:35 AM 36.7 °F 34.1 °F 36.7 °F 100% 29.82 in 3.0 mi ESE 3.5 mph - N/A   Overcast
12:55 AM 37.4 °F - 37.4 °F 100% 29.83 in 2.5 mi Calm Calm - N/A   Drizzle
1:15 AM 37.6 °F - 37.6 °F 100% 29.83 in 2.5 mi Calm Calm - N/A   Light Drizzle
1:35 AM 37.9 °F 35.5 °F 37.9 °F 100% 29.84 in 3.0 mi South 3.5 mph - N/A   Overcast
1:55 AM 38.3 °F - 38.3 °F 100% 29.85 in 4.0 mi Calm Calm - N/A   Overcast
2:15 AM 38.5 °F 33.4 °F 38.5 °F 100% 29.84 in 4.0 mi SW 6.9 mph - N/A   Overcast
2:35 AM 38.3 °F 34.8 °F 38.3 °F 100% 29.83 in 4.0 mi WSW 4.6 mph - N/A   Overcast
2:55 AM 38.1 °F 32.9 °F 38.1 °F 100% 29.84 in 5.0 mi SW 6.9 mph - N/A   Overcast
3:15 AM 38.3 °F 33.2 °F 38.3 °F 100% 29.84 in 7.0 mi SW 6.9 mph - N/A   Overcast
3:35 AM 38.5 °F 31.6 °F 38.5 °F 100% 29.85 in 10.0 mi WSW 10.4 mph - N/A   Overcast
3:55 AM 38.3 °F 30.9 °F 38.3 °F 100% 29.86 in 10.0 mi WSW 11.5 mph 18.4 mph N/A   Overcast
4:15 AM 37.9 °F 30.5 °F 37.9 °F 100% 29.88 in 5.0 mi WSW 11.5 mph - N/A   Overcast
4:35 AM 36.9 °F 29.1 °F 36.9 °F 100% 29.90 in 7.0 mi SW 11.5 mph 20.7 mph N/A   Overcast
4:55 AM 36.1 °F 28.2 °F 36.1 °F 100% 29.91 in 4.0 mi SW 11.5 mph 18.4 mph N/A   Overcast
5:15 AM 35.6 °F 28.6 °F 35.6 °F 100% 29.92 in 2.5 mi WSW 9.2 mph - N/A   Overcast
5:35 AM 35.4 °F 27.8 °F 35.4 °F 100% 29.93 in 7.0 mi WSW 10.4 mph - N/A   Overcast
5:55 AM 34.5 °F 25.7 °F 34.5 °F 100% 29.93 in 10.0 mi WSW 12.7 mph 17.3 mph N/A   Overcast
6:15 AM 34.2 °F 27.5 °F 34.2 °F 100% 29.93 in 10.0 mi WSW 8.1 mph - N/A   Overcast
6:35 AM 34.3 °F 27.7 °F 34.3 °F 100% 29.94 in 10.0 mi SW 8.1 mph - N/A   Overcast
6:55 AM 34.2 °F 26.8 °F 34.2 °F 100% 29.95 in 7.0 mi WSW 9.2 mph - N/A   Overcast
7:15 AM 34.2 °F 28.2 °F 34.2 °F 100% 29.96 in 10.0 mi SW 6.9 mph - N/A   Overcast
7:35 AM 34.3 °F 28.4 °F 34.3 °F 100% 29.96 in 10.0 mi SW 6.9 mph - N/A   Overcast
7:55 AM 35.6 °F 28.6 °F 35.6 °F 100% 29.97 in 10.0 mi SW 9.2 mph - N/A   Overcast
8:15 AM 36.0 °F 30.3 °F 36.0 °F 100% 29.99 in 10.0 mi WSW 6.9 mph - N/A   Overcast
8:35 AM 36.9 °F 30.1 °F 36.9 °F 100% 29.99 in 10.0 mi SSW 9.2 mph - N/A   Overcast
8:55 AM 38.1 °F 32.9 °F 37.6 °F 98% 30.00 in 10.0 mi SW 6.9 mph - N/A   Mostly Cloudy
9:15 AM 38.7 °F 33.6 °F 37.9 °F 97% 30.00 in 10.0 mi SSW 6.9 mph - N/A   Overcast
9:35 AM 39.4 °F 33.8 °F 36.0 °F 88% 30.00 in 10.0 mi WSW 8.1 mph 18.4 mph N/A   Overcast
9:55 AM 40.1 °F 33.2 °F 36.3 °F 86% 30.00 in 10.0 mi SW 11.5 mph - N/A   Overcast
10:15 AM 40.5 °F 33.2 °F 36.3 °F 85% 30.01 in 10.0 mi SW 12.7 mph 17.3 mph N/A   Overcast
10:35 AM 40.1 °F 32.7 °F 36.3 °F 86% 30.03 in 10.0 mi SW 12.7 mph 18.4 mph N/A   Overcast
10:55 AM 40.5 °F 33.2 °F 35.4 °F 82% 30.03 in 10.0 mi SW 12.7 mph 16.1 mph N/A   Overcast
11:15 AM 41.0 °F 34.3 °F 36.0 °F 82% 30.03 in 10.0 mi SW 11.5 mph 16.1 mph N/A   Overcast
11:35 AM 42.1 °F 34.5 °F 36.9 °F 82% 30.02 in 10.0 mi SSW 15.0 mph 18.4 mph N/A   Overcast
11:55 AM 42.6 °F 35.9 °F 35.6 °F 76% 30.01 in 10.0 mi WSW 12.7 mph 18.4 mph N/A   Overcast
12:15 PM 42.6 °F 35.6 °F 35.4 °F 76% 30.00 in 10.0 mi SSW 13.8 mph 19.6 mph N/A   Overcast
12:35 PM 42.8 °F 36.6 °F 35.6 °F 76% 30.00 in 10.0 mi WSW 11.5 mph - N/A   Overcast
12:55 PM 44.1 °F 37.1 °F 36.3 °F 74% 29.99 in 10.0 mi SSW 15.0 mph 20.7 mph N/A   Mostly Cloudy
1:15 PM 44.8 °F 38.0 °F 36.5 °F 73% 29.99 in 10.0 mi SSW 15.0 mph 20.7 mph N/A   Scattered Clouds
1:35 PM 43.2 °F 37.0 °F 35.6 °F 75% 29.99 in 10.0 mi SW 11.5 mph - N/A   Scattered Clouds
1:55 PM 44.6 °F 38.8 °F 35.4 °F 70% 29.98 in 10.0 mi WSW 11.5 mph 17.3 mph N/A   Mostly Cloudy
2:15 PM 44.6 °F 39.2 °F 35.6 °F 71% 29.99 in 10.0 mi SW 10.4 mph 18.4 mph N/A   Overcast
2:35 PM 44.6 °F 39.2 °F 36.5 °F 73% 29.98 in 10.0 mi SSW 10.4 mph - N/A   Overcast
2:55 PM 44.4 °F 38.6 °F 37.0 °F 75% 29.99 in 10.0 mi SSW 11.5 mph 16.1 mph N/A   Overcast
3:15 PM 44.1 °F 39.0 °F 36.9 °F 76% 29.99 in 10.0 mi SW 9.2 mph 16.1 mph N/A   Overcast
3:35 PM 43.9 °F 38.8 °F 36.3 °F 75% 29.98 in 10.0 mi SW 9.2 mph 18.4 mph N/A   Mostly Cloudy
3:55 PM 43.7 °F 38.1 °F 36.0 °F 74% 29.98 in 10.0 mi SW 10.4 mph - N/A   Mostly Cloudy
4:15 PM 43.0 °F 37.7 °F 36.3 °F 77% 29.99 in 10.0 mi SW 9.2 mph - N/A   Overcast
4:35 PM 42.8 °F 38.6 °F 36.3 °F 78% 29.99 in 10.0 mi SW 6.9 mph - N/A   Overcast
4:55 PM 42.8 °F 39.3 °F 36.5 °F 78% 29.98 in 10.0 mi SW 5.8 mph - N/A   Overcast
5:15 PM 42.4 °F 38.1 °F 34.9 °F 75% 29.99 in 10.0 mi WSW 6.9 mph - N/A   Overcast
5:35 PM 42.1 °F 37.7 °F 33.1 °F 70% 29.99 in 10.0 mi West 6.9 mph - N/A   Overcast
5:55 PM 41.2 °F 37.3 °F 32.9 °F 72% 30.00 in 10.0 mi West 5.8 mph - N/A   Mostly Cloudy
6:15 PM 40.3 °F 37.1 °F 32.9 °F 75% 30.01 in 10.0 mi WSW 4.6 mph - N/A   Mostly Cloudy
6:35 PM 40.6 °F 36.7 °F 33.1 °F 74% 30.03 in 10.0 mi WSW 5.8 mph - N/A   Mostly Cloudy
6:55 PM 40.5 °F 36.5 °F 32.9 °F 74% 30.03 in 10.0 mi WNW 5.8 mph - N/A   Overcast
7:15 PM 38.5 °F 34.1 °F 32.2 °F 78% 30.03 in 10.0 mi NW 5.8 mph - N/A   Mostly Cloudy
7:35 PM 37.2 °F 31.2 °F 31.6 °F 80% 30.04 in 10.0 mi WNW 8.1 mph - N/A   Mostly Cloudy
7:55 PM 35.8 °F 29.4 °F 30.7 °F 82% 30.05 in 10.0 mi WNW 8.1 mph - N/A   Scattered Clouds
8:15 PM 35.4 °F 29.7 °F 29.3 °F 78% 30.06 in 10.0 mi WNW 6.9 mph - N/A   Overcast
8:35 PM 35.1 °F 29.3 °F 28.9 °F 78% 30.06 in 10.0 mi WNW 6.9 mph - N/A   Overcast
8:55 PM 34.2 °F 29.0 °F 28.2 °F 79% 30.07 in 10.0 mi NW 5.8 mph - N/A   Scattered Clouds
9:15 PM 34.2 °F 30.0 °F 28.0 °F 78% 30.08 in 10.0 mi WNW 4.6 mph - N/A   Mostly Cloudy
9:35 PM 34.3 °F 30.2 °F 28.0 °F 78% 30.08 in 10.0 mi WNW 4.6 mph - N/A   Overcast
9:55 PM 34.2 °F 29.0 °F 27.5 °F 77% 30.08 in 10.0 mi NW 5.8 mph - N/A   Overcast
10:15 PM 34.2 °F 29.0 °F 27.5 °F 77% 30.08 in 10.0 mi WNW 5.8 mph - N/A   Overcast
10:35 PM 34.0 °F 29.8 °F 27.3 °F 77% 30.07 in 10.0 mi NW 4.6 mph - N/A   Overcast
10:55 PM 33.8 °F - 27.5 °F 78% 30.07 in 10.0 mi Calm Calm - N/A   Overcast
11:15 PM 33.3 °F 28.9 °F 27.5 °F 79% 30.07 in 10.0 mi NW 4.6 mph - N/A   Mostly Cloudy
11:35 PM 33.1 °F 28.7 °F 27.3 °F 79% 30.06 in 10.0 mi NW 4.6 mph - N/A   Scattered Clouds
11:55 PM 32.4 °F 29.1 °F 27.0 °F 80% 30.06 in 10.0 mi NW 3.5 mph - N/A   Clear